Regional Weather Roundup
Issued by NWS

Home | Current Version | Previous Version | Graphics & Text | Print | Product List | Glossary On
Versions: 1 2 3 4 5 6 7 8 9 10 11 12 13 14 15 16 17 18 19 20 21 22 23 24 25 26 27 28 29 30 31 32 33 34 35 36 37 38 39 40 41 42 43 44 45 46 47 48 49 50
000
ASUS43 KMKX 251811
RWRWI

WISCONSIN REGIONAL WEATHER ROUNDUP
NATIONAL WEATHER SERVICE MILWAUKEE/SULLIVAN WI
100 PM CDT WED APR 25 2018

NOTE: "FAIR" INDICATES FEW OR NO CLOUDS BELOW 12,000 FEET WITH NO
SIGNIFICANT WEATHER AND/OR OBSTRUCTIONS TO VISIBILITY.

WIZ001-002-006>008-014>016-023>028-251900-
NORTHWEST WISCONSIN

CITY           SKY/WX    TMP DP  RH WIND       PRES   REMARKS
SUPERIOR ARPT  FAIR      51  26  38 CALM      30.16F
6HR MIN TEMP:  26; 6HR MAX TEMP:  51;

ASHLAND        FAIR      48  26  42 VRB3      30.17F
6HR MIN TEMP:  28; 6HR MAX TEMP:  48;

HAYWARD        FAIR      50  25  37 NW3       30.16F
6HR MIN TEMP:  27; 6HR MAX TEMP:  50;

SIREN          FAIR      51  23  32 NW3       30.17F
6HR MIN TEMP:  28; 6HR MAX TEMP:  51;

CUMBERLAND     FAIR      46  27  46 CALM      30.17F
RICE LAKE      FAIR      48  28  45 NW5       30.19F
6HR MIN TEMP:  32; 6HR MAX TEMP:  48;

CHETEK         FAIR      49  29  45 N6        30.17F
6HR MIN TEMP:  30; 6HR MAX TEMP:  49;

LADYSMITH      FAIR      49  29  46 W7        30.17F
6HR MIN TEMP:  31; 6HR MAX TEMP:  49;

EAU CLAIRE     FAIR      51  27  39 CALM      30.15F
6HR MIN TEMP:  34; 6HR MAX TEMP:  51;

MENOMONIE      FAIR      50  26  39 CALM      30.18F
6HR MIN TEMP:  34; 6HR MAX TEMP:  51;

NEW RICHMOND   FAIR      51  23  33 CALM      30.18F
6HR MIN TEMP:  32; 6HR MAX TEMP:  51;

OSCEOLA        FAIR      51  26  37 NW3       30.21F
6HR MIN TEMP:  31; 6HR MAX TEMP:  51;

$$

WIZ003>005-009-010-017-018-251900-
NORTH CENTRAL WISCONSIN

CITY           SKY/WX    TMP DP  RH WIND       PRES   REMARKS
MANITOWISH WTR FAIR      44  23  42 NE5       30.13F
6HR MIN TEMP:  25; 6HR MAX TEMP:  44;

ARBOR VITAE    FAIR      45  26  47 N7        30.12F
6HR MIN TEMP:  29; 6HR MAX TEMP:  45;

WOODRUFF       FAIR      45  26  47 N7        30.12F
6HR MIN TEMP:  29; 6HR MAX TEMP:  45;

RHINELANDER    FAIR      47  25  42 NW7       30.12F
6HR MIN TEMP:  30; 6HR MAX TEMP:  47;

EAGLE RIVER    FAIR      45  23  42 NW8       30.11F
6HR MIN TEMP:  28; 6HR MAX TEMP:  45;

LAND O LAKES   FAIR      44  22  42 N7        30.13F
6HR MIN TEMP:  29; 6HR MAX TEMP:  44;

PHILLIPS       FAIR      47  26  43 NE5       30.14F
6HR MIN TEMP:  28; 6HR MAX TEMP:  48;

TOMAHAWK       FAIR      48  24  39 N6        30.13F
6HR MIN TEMP:  28; 6HR MAX TEMP:  48;

MEDFORD        FAIR      47  31  53 NW6       30.13F
6HR MIN TEMP:  30; 6HR MAX TEMP:  47;

MERRILL        FAIR      49  26  42 N6        30.13F
6HR MIN TEMP:  31; 6HR MAX TEMP:  49;

$$

WIZ029-030-035-036-043>047-251900-
CENTRAL WISCONSIN

CITY           SKY/WX    TMP DP  RH WIND       PRES   REMARKS
WAUSAU         FAIR      49  27  42 N7        30.11F
6HR MIN TEMP:  33; 6HR MAX TEMP:  49;

MOSINEE        SUNNY     48  30  49 NW9       30.14F
MARSHFIELD     FAIR      49  31  49 MISG      30.12F
6HR MIN TEMP:  34; 6HR MAX TEMP:  50;

STEVENS POINT  FAIR      48  27  44 N8        30.13F
6HR MIN TEMP:  32; 6HR MAX TEMP:  48;

WAUPACA        FAIR      54  29  38 NW7       30.13F
6HR MIN TEMP:  38; 6HR MAX TEMP:  54;

WAUTOMA        FAIR      52  27  38 VRB5      30.12
6HR MIN TEMP:  37; 6HR MAX TEMP:  52;

WISC RAPIDS    FAIR      51  29  42 NW6       30.14F
6HR MIN TEMP:  36; 6HR MAX TEMP:  52;

CAMP DOUGLAS   SUNNY     55  30  38 W9        30.12F
$$

WIZ011>013-019>022-031-037>040-048>050-251900-
NORTHEAST WISCONSIN

CITY           SKY/WX    TMP DP  RH WIND       PRES   REMARKS
ANTIGO         FAIR      46  32  59 NW7       30.12F
6HR MIN TEMP:  30; 6HR MAX TEMP:  46;

SHAWANO        FAIR      51  30  44 NE5       30.11F
6HR MIN TEMP:  36; 6HR MAX TEMP:  51;

OCONTO         FAIR      47  30  51 NE5       30.12F
6HR MIN TEMP:  34; 6HR MAX TEMP:  48;

STURGEON BAY   FAIR      45  29  53 N13       30.13F
6HR MIN TEMP:  34; 6HR MAX TEMP:  45;

GREEN BAY      FAIR      48  33  56 VRB5      30.12F
6HR MIN TEMP:  37; 6HR MAX TEMP:  49;

MANITOWOC      FAIR      48  30  49 NW12      30.12F
6HR MIN TEMP:  37; 6HR MAX TEMP:  48;

APPLETON       MOSUNNY   46  27  46 N9        30.11F
CLINTONVILLE   FAIR      48  26  42 N3        30.12F
6HR MIN TEMP:  35; 6HR MAX TEMP:  49;

OSHKOSH        FAIR      48  32  53 E10G17    30.12F
6HR MIN TEMP:  38; 6HR MAX TEMP:  48;

$$

WIZ032>034-041-042-053>061-251900-
SOUTHWEST WISCONSIN

CITY           SKY/WX    TMP DP  RH WIND       PRES   REMARKS
LA CROSSE      FAIR      54  31  41 NW8       30.14F
6HR MIN TEMP:  40; 6HR MAX TEMP:  55;

SPARTA         FAIR      54  31  41 NE5       30.14F
6HR MIN TEMP:  35; 6HR MAX TEMP:  55;

VIROQUA        FAIR      53  35  49 N8        30.13F
6HR MIN TEMP:  36; 6HR MAX TEMP:  53;

BOSCOBEL       FAIR      59  33  37 NW10      30.12F
6HR MIN TEMP:  39; 6HR MAX TEMP:  61;

PRAIRIE DU CHI FAIR      56  28  34 W12       30.12F
6HR MIN TEMP:  43; 6HR MAX TEMP:  57;

PLATTEVILLE    FAIR      56  33  41 N9        30.12F
6HR MIN TEMP:  41; 6HR MAX TEMP:  57;

$$

WIZ056-057-062-063-064-067-068-251900-
SOUTH CENTRAL WISCONSIN

CITY           SKY/WX    TMP DP  RH WIND       PRES   REMARKS
REEDSBURG      FAIR      52  29  41 CALM      30.12F
6HR MIN TEMP:  40; 6HR MAX TEMP:  53;

BARABOO/DELLS  FAIR      54  25  32 N7        30.11F
6HR MIN TEMP:  40; 6HR MAX TEMP:  54;

LONE ROCK      FAIR      58  31  35 N10       30.12F
6HR MIN TEMP:  44; 6HR MAX TEMP:  58;

MINERAL POINT  FAIR      57  30  35 NW7       30.11F
MADISON        FAIR      54  31  41 NE7       30.10F
6HR MIN TEMP:  39; 6HR MAX TEMP:  55;

MIDDLETON      FAIR      55  29  36 N5        30.11F
6HR MIN TEMP:  41; 6HR MAX TEMP:  56;

WATERTOWN      FAIR      52  33  48 N12       30.10F
6HR MIN TEMP:  40; 6HR MAX TEMP:  52;

MONROE         FAIR      55  32  41 NE6G16    30.10F
JANESVILLE     SUNNY     57  30  35 NE13      30.09F
$$

WIZ051-052-058>065-066-070>072-251900-
SOUTHEAST WISCONSIN

CITY           SKY/WX    TMP DP  RH WIND       PRES   REMARKS
MILWAUKEE      FAIR      47  34  60 NE20G28   30.11F
6HR MIN TEMP:  42; 6HR MAX TEMP:  50;

WAUKESHA       SUNNY     52  30  43 N12       30.10F
MILWAUKEE/TIMM SUNNY     50  28  43 NE12      30.11S
RACINE         FAIR      47  32  56 NE17      30.12F
6HR MIN TEMP:  40; 6HR MAX TEMP:  48;

BURLINGTON     FAIR      56  31  38 N10G17    30.08F
6HR MIN TEMP:  40; 6HR MAX TEMP:  56;

KENOSHA        FAIR      52  33  48 NE12      30.09F
6HR MIN TEMP:  41; 6HR MAX TEMP:  54;

FOND DU LAC    FAIR      48  31  51 NE14      30.13F
6HR MIN TEMP:  40; 6HR MAX TEMP:  49;

SHEBOYGAN      FAIR      49  32  52 NE8       30.11F
6HR MIN TEMP:  39; 6HR MAX TEMP:  50;

WEST BEND      FAIR      52  30  43 N12G17    30.09F
JUNEAU         FAIR      49  31  50 N6        30.12F
6HR MIN TEMP:  38; 6HR MAX TEMP:  50;

$$

LSZ147-162-251900-
LAKE SUPERIOR

STATION/POSITION TIME  TEMP    WIND        PRES    WAVE
                       AIR SEA DIR/SP/G            HT/PER
                 (UTC) (F)     (DEG/KT/KT) (MB)    (FT/S)
DEVILS ISLAND    1800   37      70/  2/  3 1022.7F
SAXON HARBOR     1730   39      50/  2/  3 1022.4F
$$

LMZ867-665-643>646-251900-
LAKE MICHIGAN

STATION/POSITION TIME  TEMP    WIND        PRES    WAVE
                       AIR SEA DIR/SP/G            HT/PER




USA.gov is the U.S. government's official web portal to all federal, state and local government web resources and services.